TimeEDT,TemperatureF,Dew PointF,Humidity,Sea Level PressureIn,VisibilityMPH,Wind Direction,Wind SpeedMPH,Gust SpeedMPH,PrecipitationIn,Events,Conditions,WindDirDegrees,DateUTC
12:53 AM,79.0,72.0,79,30.06,7.0,SSW,6.9,-,N/A,,Clear,200,2013-09-11 04:53:00
1:53 AM,78.1,72.0,81,30.06,6.0,SSW,5.8,-,N/A,,Haze,200,2013-09-11 05:53:00
2:53 AM,75.9,71.1,85,30.06,5.0,SSW,4.6,-,N/A,,Haze,200,2013-09-11 06:53:00
3:53 AM,75.0,71.1,87,30.09,5.0,South,6.9,-,N/A,,Clear,180,2013-09-11 07:53:00
4:53 AM,75.0,71.1,87,30.07,5.0,South,5.8,-,0.00,,Clear,190,2013-09-11 08:53:00
5:53 AM,73.9,70.0,87,30.07,4.0,SSW,4.6,-,N/A,,Clear,200,2013-09-11 09:53:00
6:53 AM,73.9,69.1,85,30.08,4.0,SSW,5.8,-,N/A,,Haze,200,2013-09-11 10:53:00
7:53 AM,73.9,70.0,87,30.10,3.0,South,5.8,-,N/A,,Clear,190,2013-09-11 11:53:00
8:53 AM,77.0,70.0,79,30.09,5.0,SSW,6.9,-,N/A,,Haze,200,2013-09-11 12:53:00
9:53 AM,80.1,70.0,71,30.09,7.0,SSW,8.1,-,N/A,,Clear,210,2013-09-11 13:53:00
10:53 AM,81.0,70.0,69,30.09,7.0,SW,9.2,-,N/A,,Mostly Cloudy,220,2013-09-11 14:53:00
11:53 AM,81.0,72.0,74,30.09,3.0,SSW,6.9,-,0.03,Rain,Light Rain,210,2013-09-11 15:53:00
12:53 PM,82.0,71.1,69,30.07,7.0,SW,8.1,-,0.00,,Scattered Clouds,230,2013-09-11 16:53:00
1:53 PM,86.0,71.1,61,30.05,9.0,SSW,5.8,-,N/A,,Clear,200,2013-09-11 17:53:00
2:53 PM,88.0,70.0,55,30.02,10.0,SSW,8.1,-,N/A,,Clear,210,2013-09-11 18:53:00
3:53 PM,89.1,66.9,48,29.99,10.0,WSW,9.2,-,N/A,,Clear,250,2013-09-11 19:53:00
4:53 PM,89.1,66.9,48,29.97,10.0,WSW,10.4,-,N/A,,Clear,240,2013-09-11 20:53:00
5:53 PM,84.9,69.1,59,29.98,10.0,South,4.6,-,N/A,,Partly Cloudy,190,2013-09-11 21:53:00
6:53 PM,84.0,69.1,61,29.97,10.0,South,3.5,-,N/A,,Mostly Cloudy,190,2013-09-11 22:53:00
7:53 PM,79.0,68.0,69,29.96,10.0,SSW,5.8,-,N/A,,Clear,200,2013-09-11 23:53:00
8:53 PM,80.1,68.0,67,29.97,10.0,SSW,6.9,-,N/A,,Clear,210,2013-09-12 00:53:00
9:53 PM,75.9,69.1,79,29.99,8.0,South,6.9,-,N/A,,Clear,170,2013-09-12 01:53:00
10:53 PM,73.0,64.9,76,30.01,10.0,North,3.5,-,N/A,,Mostly Cloudy,360,2013-09-12 02:53:00
11:53 PM,70.0,64.9,84,30.00,10.0,ENE,3.5,-,N/A,,Mostly Cloudy,60,2013-09-12 03:53:00